[Date Prev][Date Next][Thread Prev][Thread Next] - [Date Index][Thread Index][Author Index]
2 Line ISS Keps 1-23
- Subject: [sarex] 2 Line ISS Keps 1-23
- From: "Dave Larsen PhD" <doc@xxxxxxxxxxx>
- Date: Fri, 23 Jan 2004 13:39:29 -0800
ISS
1 25544U 98067A 04023.76515229 .00034378 00000-0 32917-3 0 593
2 25544 51.6325 345.8964 0007997 85.1007 350.3784 15.66303902295502
----
Via the sarex mailing list at AMSAT.ORG courtesy of AMSAT-NA.
To unsubscribe, send "unsubscribe sarex" to Majordomo@amsat.org
AMSAT Home